www.pogodaiklimat.ru

Погода и климат >> Архив погоды >> Аргентина >> Buenos Aires


ПОГОДА в Buenos Aires

  • Прогноз погоды в Buenos Aires
  • Монитор погоды в Buenos Aires
  • Климат города

АРХИВ ПОГОДЫ в Buenos Aires

Время (UTC), дата Ветер
(напр.,м/с)
 
Видим.   Явления Облачность Т
(С)
Тd
(С)
f
(%)
Тe
(С)
Тes
(С)
Комфортность P
(гПа)
Po
(гПа)
Тmin
(С)
Tmax
(С)
R
(мм)
R24
(мм)
S
(см)
00 19.02 СЗ 4 10 км ясно +29.9 +20.4 57 +37 +37 очень
душно
1003.2 1000.4 +25.9 +34.1
03 19.02 СЗ 2 8000 м дым ясно +27.2 +18.7 60 +32 +32 очень
душно
1003.9 1001.0
06 19.02 СЗ 1 10 км 1/0
[Ci fib]
+25.8 +19.4 68 +31 +31 очень
душно
1003.1 1000.2
09 19.02 ЮВ 3 10 км зарница 9/1 1470 м
[Cb cap Ac As]
+23.5 +17.8 70 +28 +28 душно 1004.4 1001.6
12 19.02 ЮВ 4 10 км в посл. час гроза {дождь} 9/8 450 м
[Sc Ac As]
+20.4 +19.8 96 +25 +25 комфорт 1006.3 1003.4 +20.4 +29.9 22
15 19.02 Ю 1 10 км {дождь} 6/4 600 м
[Sc Ac As]
+27.0 +19.5 64 +33 +42 очень
душно
1006.4 1003.4
18 19.02 штиль 0 10 км {дождь} 6/0
[Ac As Cs]
+27.2 +19.9 64 +33 +46 очень
душно
1003.3 1000.4 0.5
21 19.02 ЮЗ 2 10 км 9/1 600 м
[Cu hum Ac As Cs]
+29.1 +19.7 57 +35 +36 очень
душно
1002.7 999.8
00 20.02 ЮВ 1 10 км 9/0
[Ac As]
+25.7 +18.7 65 +31 +31 очень
душно
1005.4 1002.5 +20.4 +30.2
03 20.02 СЗ 4 10 км 8/0
[Ac As]
+24.6 +20.4 77 +30 +30 очень
душно
1005.4 1002.5
06 20.02 штиль 0 10 км 6/0
[Cs]
+23.2 +21.1 88 +31 +31 очень
душно
1005.0 1002.1
09 20.02 ЮВ 4 10 км 5/0
[Cs]
+20.6 +18.9 90 +25 +25 комфорт 1005.8 1002.9
12 20.02 ЮВ 2 10 км 3/1 540 м
[St Ci fib]
+22.6 +19.3 82 +29 +34 очень
душно
1007.3 1004.4 +20.4 +25.7 0.5
15 20.02 ЮВ 4 10 км 3/1 540 м
[Cu hum Ci fib]
+27.2 +19.8 64 +33 +44 очень
душно
1008.3 1005.4
18 20.02 ЮВ 3 10 км 4/4 540 м
[Cu hum]
+30.5 +17.3 45 +34 +42 очень
душно
1007.4 1004.5
21 20.02 ЮВ 3 10 км 4/3 540 м
[Cu hum Ci fib]
+28.6 +15.0 44 +31 +32 жарко 1007.9 1005.0
00 21.02 ЮВ 6 10 км 9/3 450 м
[St As trans]
+25.0 +15.9 57 +28 +28 жарко 1010.6 1007.7 +22.6 +31.4
03 21.02 ЮВ 5 10 км 9/5 450 м
[St Ac As]
+21.6 +16.6 73 +25 +25 комфорт 1012.2 1009.3
06 21.02 ЮВ 4 10 км 4/0
[Ac As Cs]
+19.1 +15.9 82 +21 +21 комфорт 1012.3 1009.4
09 21.02 ЮВ 5 10 км 10/3 600 м
[Sc Ac As Cs]
+18.6 +16.3 86 +19 +19 1012.7 1009.8
12 21.02 ЮВ 2 10 км 10/10 450 м
[St]
+19.2 +16.2 83 +21 +21 комфорт 1014.7 1011.8 +18.6 +25.0
15 21.02 Ю 4 10 км 5/5 750 м
[Sc]
+24.6 +16.2 60 +28 +34 душно 1014.4 1011.4
18 21.02 Ю 4 10 км в посл. час дождь 9/4 750 м
[Cu med, cong Ac As Cs]
+25.9 +15.7 53 +29 +32 душно 1012.9 1010.0 0.0
21 21.02 ЮВ 4 10 км {дождь} 5/5 870 м
[Cu Sc]
+25.3 +13.3 47 +27 +28 жарко 1012.8 1009.8
00 22.02 СВ 2 10 км {дождь} 3/0
[Ac trans]
+22.3 +15.0 63 +26 +26 жарко 1014.1 1011.2 +19.2 +28.1 0.6
03 22.02 В 3 10 км ясно +19.7 +14.4 71 +22 +22 комфорт 1015.8 1012.9
06 22.02 СВ 2 10 км ясно +17.9 +14.3 79 +19 +19 1015.5 1012.6
09 22.02 СВ 1 10 км ясно +16.0 +13.5 85 +17 +17 1016.3 1013.4
12 22.02 ЮВ 2 10 км 3/0
[Ci]
+20.0 +13.2 65 +23 +29 комфорт 1017.7 1014.8 +15.5 +22.3 0.6
15 22.02 Ю 2 10 км 1/0
[Ci fib]
+26.2 +14.1 47 +28 +47 жарко 1018.1 1015.2
18 22.02 Ю 3 10 км 1/0
[Ci fib]
+28.6 +13.7 40 +30 +43 жарко 1016.6 1013.7
21 22.02 С 3 10 км ясно +25.3 +15.3 54 +28 +30 жарко 1015.8 1012.9
00 23.02 СВ 3 10 км ясно +22.6 +15.7 65 +27 +27 душно 1016.7 1013.8 +20.0 +29.0
03 23.02 СЗ 2 10 км 1/0
[Cs]
+22.0 +15.2 65 +26 +26 душно 1016.1 1013.2
06 23.02 С 2 10 км 1/0
[Cs]
+20.5 +15.7 74 +24 +24 комфорт 1016.2 1013.3
09 23.02 СЗ 1 10 км 1/0
[Cs]
+17.3 +14.0 81 +18 +18 1016.5 1013.6
12 23.02 СЗ 2 10 км 5/0
[Ci]
+22.3 +13.6 58 +25 +31 комфорт 1018.5 1015.6 +17.0 +23.2
15 23.02 СЗ 2 10 км 3/0
[Ci]
+27.3 +12.8 41 +29 +46 жарко 1018.8 1016.0
18 23.02 С 3 10 км 8/0
[Ci]
+27.9 +14.3 43 +30 +40 жарко 1017.6 1014.6
21 23.02 СВ 2 10 км 9/0
[Cs]
+26.7 +15.9 52 +30 +31 душно 1017.0 1014.1
00 24.02 СВ 3 10 км 8/0
[Cs]
+24.1 +18.1 69 +28 +28 душно 1018.2 1015.3 +22.3 +28.9
03 24.02 СВ 3 10 км 3/0
[Cs]
+21.2 +16.1 73 +25 +25 комфорт 1018.9 1016.0
06 24.02 В 5 10 км 3/0
[Cs]
+19.8 +17.0 84 +22 +22 комфорт 1019.4 1016.5
09 24.02 В 3 10 км 4/1 450 м
[Sc Cs]
+18.2 +15.7 85 +19 +19 1019.4 1016.5
12 24.02 В 3 10 км 3/3 450 м
[Sc]
+21.9 +16.0 69 +26 +29 душно 1020.9 1018.0 +17.4 +24.1
15 24.02 СВ 2 10 км 4/4 450 м
[Cu Sc]
+25.0 +17.0 61 +29 +40 душно 1021.3 1018.4
18 24.02 СВ 3 10 км 6/0
[Cs]
+27.0 +15.7 50 +30 +40 душно 1018.8 1016.0
21 24.02 СВ 3 10 км 3/0
[Cs]
+25.0 +13.5 49 +27 +28 жарко 1018.1 1015.2
00 25.02 В 4 10 км 6/0
[Ac As Cs]
+22.2 +15.2 65 +26 +26 душно 1019.5 1016.6 +21.9 +27.2
03 25.02 СВ 1 10 км 6/0
[Cs]
+21.3 +16.4 74 +25 +25 комфорт 1019.8 1016.9
06 25.02 СВ 1 10 км 5/1 450 м
[Sc Cs]
+21.3 +16.9 76 +25 +25 комфорт 1019.0 1016.1
09 25.02 В 2 10 км ясно +20.2 +15.5 74 +24 +24 комфорт 1019.1 1016.2
12 25.02 С 3 10 км 5/1 540 м
[Sc Cc]
+23.1 +17.4 70 +28 +33 душно 1020.3 1017.4 +20.0 +23.1
15 25.02 СВ 4 10 км 6/1 540 м
[Sc Cs]
+25.0 +16.9 61 +29 +38 душно 1020.5 1017.6
18 25.02 В 4 10 км 6/0
[Cs]
+26.3 +16.9 56 +30 +39 душно 1018.7 1015.8
21 25.02 В 2 10 км 8/0
[Cs]
+24.9 +13.2 48 +27 +28 жарко 1017.7 1014.8

 

Местоположение метеостанции Buenos Aires (Аргентина): широта -34.58 долгота -58.48 высота над уровнем моря 25 м.

В архиве по умолчанию представлена погода в Buenos Aires за последнюю неделю. Архивные данные за месяц целиком и за предыдущие месяцы, начиная с января 2011 года, Вы можете получить, выбрав интересующий диапазон дат из раскрывающегося списка и нажав кнопку "Ввод!".

Внимание! Время в таблицах - всемирное. Для получения местного времени необходимо прибавить поправку, которая в Buenos Aires равна -3 ч.

Смотрите также архив погоды в соседних городах и на ближайших метеорологических станциях:

Погода в Buenos Aires Aeropuerto (Аргентина) (7 км)
Погода в Ezeiza (Аргентина) (26 км)
Погода в Colonia (Уругвай) (61 км)
Погода в La Plata (Аргентина) (68 км)
Погода в Mercedes (Уругвай) (153 км)
Погода в Las Flores (Аргентина) (175 км)
Погода в Gualeguaychu (Аргентина) (176 км)
Погода в Melilla (Уругвай) (205 км)
Погода в Dolores (Аргентина) (205 км)
Погода в Prado (Уругвай) (211 км)

Пояснения к столбцам:

Ветер - указаны скорость ветра в м/с - средняя за 10 мин, порывы в срок и между сроками (в фигурных скобках) и направление, откуда дует ветер: С - северный, СВ - северо-восточный, В - восточный, ЮВ - юго-восточный, Ю - южный, ЮЗ - юго-западный, З - западный, СЗ - северо-западный.
Видимость - горизонтальная дальность видимости в метрах или километрах. При видимости от 1 до 10 км при отсутствии осадков обычно наблюдается дымка, при ухудшении видимости до 1 км и менее - туман. В сухую погоду видимость может ухудшаться дымом, пылью или мглою.
Явления - указаны атмосферные явления, наблюдавшиеся в срок или в последний час перед сроком; фигурными скобками обозначены явления, наблюдавшиеся между сроками (за 1-3 часа до срока); квадратными скобками обозначены град или гололедные отложения с указанием их диаметра в мм.
Облачность - указаны через наклонную черту общая и нижняя облачность в баллах и высота нижней границы облаков в метрах; квадратными скобками обозначены формы облаков: Ci - перистые, Cs - перисто-слоистые, Cc - перисто-кучевые, Ac - высококучевые, As - высокослоистые, Sc - слоисто-кучевые, Ns - слоисто-дождевые, Cu - кучевые, Cb - кучево-дождевые. Подробнее классификацию облаков см. в Атласе облаков (PDF).
T - Температура воздуха - температура, измеренная на высоте 2 м над землей.
Td - Температура точки росы - температура, при понижении до которой содержащийся в воздухе водяной пар достигнет насыщения.
f - Относительная влажность воздуха - влажноcть воздуха, измеренная на высоте 2 м над землей.
Te - Эффективная температура - температура, которую ощущает одетый по сезону человек в тени. Характеристика душности погоды. При расчете учитывается влияние влажности воздуха и скорости ветра на теплоощущения человека.
Tes - Эффективная температура на солнце - температура, которую ощущает человек, с поправкой на солнечный нагрев. Характеристика знойности погоды. Зависит от высоты солнца над горизонтом, облачности и скорости ветра. Ночью, в пасмурную погоду, а также при ветре 12 м/с и более поправка равна нулю.
P - Атмосферное давление - приведенное к уровню моря атмосферное давление.
Po - Атмосферное давление - измеренное на уровне метеостанции атмосферное давление.
Tmin - Минимальная температура - минимум температуры воздуха на высоте 2 м над землей.
Tmax - Максимальная температура - максимум температуры воздуха на высоте 2 м над землей.
R - Количество осадков - Количество выпавших осадков за период времени, мм. При наведении курсора мыши на число - период времени, за который выпало указанное количество осадков.
R24 - Количество осадков - Количество выпавших осадков за 24 часа, мм.
S - Снежный покров - Высота снежного покрова, см. При наведении курсора мыши на число - состояние снежного покрова и степень покрытия местности в баллах.